Time,TemperatureF,DewpointF,PressureIn,WindDirection,WindDirectionDegrees,WindSpeedMPH,WindSpeedGustMPH,Humidity,HourlyPrecipIn,Conditions,Clouds,dailyrainin,SoftwareType,DateUTC
2013-04-19 00:08:00,37.7,33.0,29.61,NW,314,4.0,21.0,82,0.00,,,1.43,weatherlink.com 1.10,2013-04-19 05:08:00,
2013-04-19 01:11:00,37.5,32.0,29.61,West,259,7.0,15.0,81,0.00,,,1.43,weatherlink.com 1.10,2013-04-19 06:11:00,
2013-04-19 01:24:00,37.4,32.0,29.61,West,278,8.0,20.0,82,0.00,,,1.43,weatherlink.com 1.10,2013-04-19 06:24:00,
2013-04-19 03:55:00,36.2,31.0,29.61,West,277,11.0,21.0,80,0.00,,,0.00,weatherlink.com 1.10,2013-04-19 08:55:00,
2013-04-19 05:27:00,35.9,30.0,29.61,West,265,12.0,17.0,79,0.00,,,0.00,weatherlink.com 1.10,2013-04-19 10:27:00,
2013-04-19 07:44:00,35.1,30.0,29.65,West,273,9.0,21.0,81,0.00,,,0.00,weatherlink.com 1.10,2013-04-19 12:44:00,
2013-04-19 09:32:00,35.8,31.0,29.68,WNW,299,6.0,18.0,81,0.00,,,0.00,weatherlink.com 1.10,2013-04-19 14:32:00,
2013-04-19 09:44:00,35.5,30.0,29.68,West,265,12.0,17.0,81,0.00,,,0.00,weatherlink.com 1.10,2013-04-19 14:44:00,
2013-04-19 09:59:00,35.7,30.0,29.69,West,269,13.0,22.0,80,0.00,,,0.00,weatherlink.com 1.10,2013-04-19 14:59:00,
2013-04-19 10:14:00,35.8,30.0,29.69,WNW,289,8.0,22.0,79,0.00,,,0.00,weatherlink.com 1.10,2013-04-19 15:14:00,
2013-04-19 10:29:00,35.8,30.0,29.70,WNW,285,7.0,24.0,80,0.00,,,0.00,weatherlink.com 1.10,2013-04-19 15:29:00,
2013-04-19 10:44:00,36.0,31.0,29.70,WNW,293,9.0,20.0,81,0.00,,,0.00,weatherlink.com 1.10,2013-04-19 15:44:00,
2013-04-19 10:59:00,35.7,30.0,29.71,West,280,7.0,22.0,80,0.00,,,0.00,weatherlink.com 1.10,2013-04-19 15:59:00,
2013-04-19 11:14:00,35.5,30.0,29.71,WNW,287,15.0,20.0,80,0.00,,,0.00,weatherlink.com 1.10,2013-04-19 16:14:00,
2013-04-19 11:29:00,37.1,32.0,29.71,WNW,302,5.0,21.0,81,0.00,,,0.00,weatherlink.com 1.10,2013-04-19 16:29:00,
2013-04-19 11:44:00,36.8,30.0,29.73,West,275,10.0,20.0,76,0.00,,,0.00,weatherlink.com 1.10,2013-04-19 16:44:00,
2013-04-19 11:59:00,36.4,30.0,29.73,WNW,292,18.0,27.0,77,0.00,,,0.00,weatherlink.com 1.10,2013-04-19 16:59:00,
2013-04-19 12:14:00,36.9,31.0,29.73,NW,304,10.0,23.0,78,0.00,,,0.00,weatherlink.com 1.10,2013-04-19 17:14:00,
2013-04-19 12:29:00,37.0,30.0,29.73,NNW,329,15.0,22.0,76,0.00,,,0.00,weatherlink.com 1.10,2013-04-19 17:29:00,
2013-04-19 12:44:00,36.8,30.0,29.74,NNW,340,13.0,25.0,77,0.00,,,0.00,weatherlink.com 1.10,2013-04-19 17:44:00,
2013-04-19 12:59:00,36.6,30.0,29.75,West,276,15.0,23.0,76,0.00,,,0.00,weatherlink.com 1.10,2013-04-19 17:59:00,
2013-04-19 13:15:00,36.9,30.0,29.75,NW,310,18.0,21.0,76,0.00,,,0.00,weatherlink.com 1.10,2013-04-19 18:15:00,
2013-04-19 13:30:00,37.0,30.0,29.76,WNW,290,8.0,23.0,77,0.00,,,0.00,weatherlink.com 1.10,2013-04-19 18:30:00,
2013-04-19 13:45:00,37.6,30.0,29.76,NW,307,6.0,18.0,74,0.00,,,0.00,weatherlink.com 1.10,2013-04-19 18:45:00,
2013-04-19 14:00:00,37.4,30.0,29.77,NW,326,11.0,20.0,75,0.00,,,0.00,weatherlink.com 1.10,2013-04-19 19:00:00,
2013-04-19 14:15:00,37.6,30.0,29.78,NW,306,10.0,21.0,75,0.00,,,0.00,weatherlink.com 1.10,2013-04-19 19:15:00,
2013-04-19 14:30:00,38.0,30.0,29.79,NW,315,5.0,21.0,74,0.00,,,0.00,weatherlink.com 1.10,2013-04-19 19:30:00,
2013-04-19 14:45:00,37.8,31.0,29.80,WNW,298,5.0,20.0,75,0.00,,,0.00,weatherlink.com 1.10,2013-04-19 19:45:00,
2013-04-19 15:00:00,37.6,30.0,29.80,NW,315,9.0,19.0,74,0.00,,,0.00,weatherlink.com 1.10,2013-04-19 20:00:00,
2013-04-19 15:15:00,37.7,30.0,29.80,WNW,297,6.0,17.0,74,0.00,,,0.00,weatherlink.com 1.10,2013-04-19 20:15:00,
2013-04-19 15:30:00,38.2,30.0,29.80,WNW,303,10.0,20.0,73,0.00,,,0.00,weatherlink.com 1.10,2013-04-19 20:30:00,
2013-04-19 15:45:00,38.6,31.0,29.80,NNW,333,11.0,19.0,73,0.00,,,0.00,weatherlink.com 1.10,2013-04-19 20:45:00,
2013-04-19 16:00:00,38.9,31.0,29.81,WNW,302,8.0,16.0,73,0.00,,,0.00,weatherlink.com 1.10,2013-04-19 21:00:00,
2013-04-19 16:15:00,39.1,31.0,29.81,NW,309,11.0,20.0,72,0.00,,,0.00,weatherlink.com 1.10,2013-04-19 21:15:00,
2013-04-19 16:31:00,39.3,30.0,29.82,WNW,296,12.0,23.0,70,0.00,,,0.00,weatherlink.com 1.10,2013-04-19 21:31:00,
2013-04-19 16:46:00,39.0,30.0,29.83,NW,322,10.0,18.0,71,0.00,,,0.00,weatherlink.com 1.10,2013-04-19 21:46:00,
2013-04-19 17:01:00,39.3,31.0,29.84,NW,319,11.0,15.0,72,0.00,,,0.00,weatherlink.com 1.10,2013-04-19 22:01:00,
2013-04-19 17:16:00,39.4,30.0,29.85,NW,316,7.0,24.0,70,0.00,,,0.00,weatherlink.com 1.10,2013-04-19 22:16:00,
2013-04-19 17:31:00,39.5,31.0,29.86,NW,317,11.0,18.0,72,0.00,,,0.00,weatherlink.com 1.10,2013-04-19 22:31:00,
2013-04-19 17:46:00,39.4,30.0,29.87,NW,313,6.0,19.0,70,0.00,,,0.00,weatherlink.com 1.10,2013-04-19 22:46:00,
2013-04-19 18:01:00,39.1,31.0,29.87,West,271,3.0,16.0,72,0.00,,,0.00,weatherlink.com 1.10,2013-04-19 23:01:00,
2013-04-19 18:16:00,39.1,30.0,29.88,NNW,338,5.0,15.0,70,0.00,,,0.00,weatherlink.com 1.10,2013-04-19 23:16:00,
2013-04-19 18:31:00,39.1,30.0,29.89,North,351,5.0,11.0,71,0.00,,,0.00,weatherlink.com 1.10,2013-04-19 23:31:00,
2013-04-19 18:46:00,39.1,30.0,29.90,North,5,7.0,18.0,71,0.00,,,0.00,weatherlink.com 1.10,2013-04-19 23:46:00,
2013-04-19 19:01:00,37.9,31.0,29.91,NNE,28,8.0,16.0,76,0.00,,,0.00,weatherlink.com 1.10,2013-04-20 00:01:00,
2013-04-19 19:16:00,37.5,30.0,29.92,NW,309,10.0,19.0,73,0.00,,,0.00,weatherlink.com 1.10,2013-04-20 00:16:00,
2013-04-19 19:31:00,37.6,29.0,29.93,NW,317,15.0,19.0,71,0.00,,,0.00,weatherlink.com 1.10,2013-04-20 00:31:00,
2013-04-19 19:46:00,37.4,29.0,29.94,NNW,345,15.0,16.0,72,0.00,,,0.00,weatherlink.com 1.10,2013-04-20 00:46:00,
2013-04-19 20:02:00,37.2,30.0,29.95,NW,317,10.0,19.0,74,0.00,,,0.00,weatherlink.com 1.10,2013-04-20 01:02:00,
2013-04-19 20:17:00,36.7,29.0,29.96,North,355,10.0,17.0,74,0.00,,,0.00,weatherlink.com 1.10,2013-04-20 01:17:00,
2013-04-19 20:32:00,36.9,28.0,29.97,WNW,287,12.0,19.0,71,0.00,,,0.00,weatherlink.com 1.10,2013-04-20 01:32:00,
2013-04-19 20:47:00,36.9,28.0,29.98,North,349,10.0,13.0,71,0.00,,,0.00,weatherlink.com 1.10,2013-04-20 01:47:00,
2013-04-19 21:02:00,36.9,29.0,29.99,NNW,327,4.0,15.0,72,0.00,,,0.00,weatherlink.com 1.10,2013-04-20 02:02:00,
2013-04-19 21:17:00,36.9,28.0,30.00,NW,320,7.0,18.0,71,0.00,,,0.00,weatherlink.com 1.10,2013-04-20 02:17:00,
2013-04-19 21:32:00,36.8,28.0,30.00,North,5,9.0,18.0,71,0.00,,,0.00,weatherlink.com 1.10,2013-04-20 02:32:00,
2013-04-19 21:47:00,36.7,27.0,30.01,NW,323,6.0,14.0,69,0.00,,,0.00,weatherlink.com 1.10,2013-04-20 02:47:00,
2013-04-19 22:02:00,36.6,28.0,30.01,NW,318,5.0,12.0,71,0.00,,,0.00,weatherlink.com 1.10,2013-04-20 03:02:00,
2013-04-19 22:17:00,36.3,28.0,30.02,NW,325,6.0,13.0,71,0.00,,,0.00,weatherlink.com 1.10,2013-04-20 03:17:00,
2013-04-19 22:32:00,35.8,28.0,30.02,WNW,284,5.0,13.0,72,0.00,,,0.00,weatherlink.com 1.10,2013-04-20 03:32:00,
2013-04-19 22:47:00,35.5,28.0,30.03,NNW,331,8.0,14.0,74,0.00,,,0.00,weatherlink.com 1.10,2013-04-20 03:47:00,
2013-04-19 23:02:00,35.7,27.0,30.03,NW,315,7.0,12.0,72,0.00,,,0.00,weatherlink.com 1.10,2013-04-20 04:02:00,
2013-04-19 23:17:00,35.5,27.0,30.04,NW,314,4.0,12.0,72,0.00,,,0.00,weatherlink.com 1.10,2013-04-20 04:17:00,
2013-04-19 23:33:00,35.0,27.0,30.04,NNW,331,7.0,9.0,73,0.00,,,0.00,weatherlink.com 1.10,2013-04-20 04:33:00,
2013-04-19 23:48:00,34.5,28.0,30.05,WNW,300,3.0,9.0,76,0.00,,,0.00,weatherlink.com 1.10,2013-04-20 04:48:00,